Home   Weather   Singapore   Past weeks

Flag for Singapore Past Weather in Singapore, Singapore — Yesterday and Last 2 Weeks

Now
75 °F

Passing clouds.


Feels Like: 73 °F
Forecast: 73 / 81 °F
Wind: 6 mph from Northwest

Location: Changi Airport

Current Time: Jan 24, 2017 at 3:31:43 am

Latest Report: Jan 24, 2017 at 3:00 am


Visibility: 4 mi

Pressure: 29.89 "Hg

Humidity: 100%

Dew Point: 75 °F

Location of SingaporeLocation

Past Weather in Singapore — Graph

°F

Singapore Temperature Yesterday

Maximum temperature yesterday: 82 °F (at 5:30 pm)
Minimum temperature yesterday: 75 °F (at 3:00 am)
Average temperature yesterday: 77 °F

High & Low Weather Summary for the Past Weeks

 TemperatureHumidityPressure
High90 °F (Jan 9, 12:30 pm)100% (Jan 11, 5:30 pm)29.95 "Hg (Jan 11, 5:30 pm)
Low73 °F (Jan 11, 5:30 pm)55% (Jan 12, 3:30 pm)29.68 "Hg (Jan 9, 3:30 pm)
Average81 °F86%29.82 "Hg
* Reported Jan 9 2:00 am — Jan 24 2:00 am, Singapore, Weather by CustomWeather, © 2017

Note: Actual official high and low records may vary slightly from our data, if they occured in-between our weather recording intervals... More about our weather records

Advertising

Singapore Weather History for the Previous 24 Hours

Scroll right to see more
 ConditionsComfort  
Time TempWeatherWind HumidityBarometerVisibility
2:00 am
Tue, Jan 24
75 °FRain. Passing clouds.5 mph100%29.89 "Hg4 mi
1:30 am75 °FLight rain. Passing clouds.5 mph100%29.89 "Hg5 mi
1:00 am75 °FLight rain. Passing clouds.3 mph100%29.92 "Hg5 mi
12:30 am75 °FPassing clouds.3 mph100%29.92 "Hg5 mi
12:00 am75 °FPassing clouds.3 mph100%29.92 "Hg5 mi
11:30 pm
Mon, Jan 23
75 °FLight rain. Passing clouds.5 mph100%29.92 "Hg5 mi
11:00 pm75 °FHeavy rain. Partly cloudy.2 mph100%29.92 "Hg4 mi
10:30 pm75 °FRain. Passing clouds.3 mph100%29.92 "Hg4 mi
10:00 pm75 °FRain. Passing clouds.3 mph100%29.92 "Hg4 mi
9:30 pm75 °FLight rain. Passing clouds.3 mph100%29.92 "Hg4 mi
9:00 pm75 °FLight rain. Passing clouds.5 mph100%29.92 "Hg4 mi
8:30 pm75 °FSprinkles. Passing clouds.1 mph100%29.89 "Hg3 mi
8:00 pm75 °FSprinkles. Passing clouds.1 mph100%29.89 "Hg3 mi
7:30 pm77 °FThunderstorms. Passing clouds.5 mph94%29.86 "Hg3 mi
7:00 pm79 °FSprinkles. Scattered clouds.5 mph89%29.86 "Hg4 mi
6:30 pm81 °FScattered showers. Scattered clouds.2 mph84%29.83 "HgN/A
6:00 pm82 °FScattered clouds.5 mph79%29.83 "HgN/A
5:30 pm82 °FScattered clouds.2 mph79%29.83 "HgN/A
5:00 pm81 °FScattered clouds.3 mph84%29.83 "HgN/A
4:30 pm81 °FScattered clouds.3 mph84%29.83 "HgN/A
4:00 pm81 °FLight rain. Partly sunny.3 mph84%29.83 "HgN/A
3:30 pm81 °FLight rain. Broken clouds.3 mph84%29.83 "HgN/A
3:00 pm79 °FLight rain. Broken clouds.3 mph94%29.86 "Hg6 mi
2:30 pm79 °FLight rain. Broken clouds.3 mph94%29.89 "Hg5 mi
2:00 pm79 °FLight rain. Broken clouds.6 mph94%29.89 "Hg4 mi
1:30 pm77 °FLight rain. Broken clouds.6 mph94%29.92 "Hg5 mi
1:00 pm79 °FLight rain. Broken clouds.12 mph89%29.92 "HgN/A
12:30 pm79 °FLight rain. Partly sunny.6 mph94%29.92 "HgN/A
12:00 pm77 °FLight rain. Partly sunny.7 mph100%29.95 "Hg5 mi
11:30 am77 °FRain. More clouds than sun.8 mph100%29.95 "Hg4 mi
11:00 am75 °FThunderstorms. Low clouds.8 mph100%29.95 "Hg3 mi
10:30 am75 °FStrong thunderstorms. More clouds than sun.12 mph100%29.95 "Hg1 mi
10:00 am75 °FThunderstorms. More clouds than sun.3 mph100%29.92 "Hg2 mi
9:30 am77 °FThunderstorms. Broken clouds.2 mph100%29.92 "Hg3 mi
9:00 am77 °FStrong thunderstorms. Partly sunny.8 mph100%29.92 "Hg2 mi
8:30 am77 °FThunderstorms. Broken clouds.2 mph100%29.89 "Hg2 mi
8:00 am77 °FThunderstorms. Partly sunny.5 mph100%29.86 "Hg5 mi
7:30 am77 °FStrong thunderstorms. Broken clouds.12 mph94%29.86 "Hg2 mi
7:00 am77 °FThunderstorms. Passing clouds.2 mph100%29.86 "Hg4 mi
6:30 am79 °FThunderstorms. Partly cloudy.2 mph94%29.83 "Hg4 mi
6:00 am79 °FThunderstorms. Partly cloudy.6 mph100%29.83 "Hg4 mi
5:30 am79 °FThunderstorms. Passing clouds.3 mph100%29.83 "Hg4 mi
5:00 am77 °FThunderstorms. Passing clouds.2 mph100%29.83 "Hg4 mi
4:30 am77 °FThunderstorms. Passing clouds.6 mph100%29.83 "Hg4 mi
4:00 am75 °FThunderstorms. Passing clouds.5 mph100%29.83 "Hg4 mi
3:30 am75 °FThunderstorms. Passing clouds.8 mph100%29.86 "Hg2 mi
3:00 am75 °FStrong thunderstorms. Passing clouds.15 mph100%29.86 "Hg1 mi
Weather by CustomWeather, © 2017

See weather overviewHow to use our weather pages